THOR ABLESTAR DEB, 145

Orbit data source: Space-Track

THOR ABLESTAR DEB, 145 is space debris in LEO originally from a launch on Thu, 29 Jun 1961 UTC launched from the Air Force Eastern Test Range (AFETR). Debris objects in space refer to the collection of defunct objects orbiting the Earth. Examples of debris include non-operational satellites, rocket bodies, and fragments generated from explosions, collisions, or faulty payload assembly.

Loading next visibility...
Identifier
145, 1961-015AF
Orbit
LEO
Country
Flag of USUS
Related business
Manufacturer
Unknown
Mission
Spacecraft
Bus & Motor
Unknown
Mass
Unknown
Launch date (UTC)
1961-06-29 (65 years ago)
Launch vehicle
Unknown
Launch site
Air Force Eastern Test Range (AFETR)
Object type
Payload
Rocket body
Debris
Shape & HBR
Unknown shape, 0.4 m
Radar Cross Section
Medium (>0.1 m² and <1 m²)

Expand to show TLE details & history
Last TLE update: 16 hours ago

TLE from 16 hours ago
0 THOR ABLESTAR DEB
1   145U 61015AF  26061.93232972  .00000467  00000-0  34352-3 0  9992
2   145  66.9256 286.3371 0062033   9.0332 351.1854 14.03223430301808
Epoch: 2026-03-02T22:22Z
TLE epoch observation values (Epoch: 2026-03-02T22:22:33.287Z)
Latitude
-0.00006°
Longitude
149.97973°
Altitude
840.245 km
Speed
7.456 km/s
True Right ascension
19h 05m 20s
True Declination
0° 00' 00"
Sunlit
Object was in daylight at epoch
Visualization orbit readout
Latitude
Unknown
Longitude
Unknown
Altitude
Unknown
Speed
Unknown
Apparent Right ascension
Unknown
Apparent Declination
Unknown
Sunlit
N/A
Visualization observer readout
Local Sidereal Time
17:46:46
Azimuth
Unknown
Elevation
Unknown
Doppler factor
Unknown
Orbital elements
Apogee altitude
926.054 km
Perigee altitude
835.993 km
Semi-major axis
7,259.161 km
Eccentricity
0.0062
Inclination
66.9256°
RAAN
286.3371°
Arg. of periapsis
9.0332°
True anomaly
351.07563°
Mean anomaly
351.1854°
Eccentric anomaly
351.1306°
Mean motion
3.50924 °/min
Orbital period
102.59 mins
BSTAR
0.00034352
Loading maneuver chart data...
Computing Atmospheric mass density...

Documentation

Showing up to 5 results
|